Tracking 18033 objects as of 23-March-2017
HD Live streaming from Space Station
objects crossing your sky now

COSMOS 2504

Track COSMOS 2504 now!
10-day predictions
COSMOS 2504 is classified as:


NORAD ID: 40555
Int'l Code: 2015-020D
Perigee: 1,179.1 km
Apogee: 1,514.3 km
Inclination: 82.5 °
Period: 112.5 minutes
Semi major axis: 7717 km
RCS: Unknown
Launch date: March 31, 2015
Source: Commonwealth of Independent States (former USSR) (CIS)
Launch site: PLESETSK MISSILE AND SPACE COMPLEX (PKMTR)

COSMOS 2504 is a secretive Russian military satellite. Russian officials have not disclosed information on its mission.
Your satellite tracking list
Your tracking list is empty





NASA's NSSDC Master Catalog

Two Line Element Set (TLE):
1 40555U 15020D   17080.89365860 +.00000011 +00000-0 +00000-0 0  9990
2 40555 082.4859 300.9523 0217165 023.1587 337.9124 12.80478379092444
Source of the keplerian elements: AFSPC